TRINITY LAKE (CLE)

Elevation: 2370' · TRINITY R basin · Operator: US Bureau of Reclamation

Provisional data, subject to change.
Query executed Saturday at 6:47:04   clock

Select a sensor type for a plot of data.
Note: Reservoir Flows are daily averages.

Earlier

Date RES ELE    STORAGE    RES CHG    OUTFLOW    INFLOW    EVAP    FNF    RIV REL    PPT INC    SPILL    DIS PWR   
 FEET   AF   AF   CFS   CFS   CFS   CFS   CFS   INCHES   CFS   CFS  
09/02/2016 2260.99 1053119 -3422 1659 -1 65 69 e 0 0.00 0 1659
09/03/2016 2260.62 1049719 -3400 1675 26 65 26 0 0.00 0 1675
09/04/2016 2260.25 1046319 -3400 1667 20 67 161 e 0 0.00 0 1667
09/05/2016 2259.92 1043290 -3029 1617 138 48 68 e 0 0.00 0 1617
09/06/2016 2259.57 1040094 -3196 1702 134 43 134 0 0.00 0 1702
09/07/2016 2259.22 1036897 -3197 1727 179 64 179 0 0.00 0 1727
09/08/2016 2258.92 1034162 -2735 1625 302 56 161 e 0 0.00 0 1625
09/09/2016 2258.59 1031166 -2996 1625 190 75 93 e 0 0.00 0 1625
09/10/2016 2258.29 1028443 -2723 1476 164 61 88 e 0 0.00 0 1476
09/11/2016 2257.92 1025089 -3354 1610 -4 77 93 e 0 0.00 0 1610
09/12/2016 2257.57 1021931 -3158 1529 11 74 87 e 0 0.00 0 1529
09/13/2016 2257.18 1018412 -3519 1633 -96 45 23 e 0 0.00 0 1633
09/14/2016 2256.87 1015622 -2790 1495 141 53 22 e 0 0.00 0 1495
09/15/2016 2256.54 1012662 -2960 1518 81 55 81 0 0.00 0 1518
09/16/2016 2256.27 1010241 -2421 1358 187 50 187 0 0.00 0 1358
09/17/2016 2255.96 1007462 -2779 1466 120 55 120 0 0.00 0 1466
09/18/2016 2255.64 1004610 -2852 1524 157 71 157 0 0.00 0 1524
09/19/2016 2255.36 1002113 -- 1380 181 60 181 0 0.00 0 1380
09/20/2016 2255.04 999261 -2852 1375 -11 52 -11 0 0.00 0 1375
09/21/2016 2254.63 995626 -3635 1518 -258 57 -258 0 0.00 0 1518
09/22/2016 2254.25 992259 -3367 1594 -39 65 -39 3 0.00 0 1591
09/23/2016 2253.94 989516 -2743 1488 149 44 149 0 0.00 0 1488
09/24/2016 2253.64 986874 -2642 1455 146 23 146 0 0.00 0 1455
09/25/2016 2253.41 984848 -2026 1282 313 52 313 0 0.00 0 1282
09/26/2016 2253.13 982383 -2465 1346 162 59 162 0 0.00 0 1346
09/27/2016 2252.70 978612 -3771 1451 -406 44 -- 0 0.00 0 1451
09/28/2016 2252.37 975724 -2888 1540 135 51 -- 0 0.00 0 1540
09/29/2016 2252.04 972835 -2889 1394 -9 54 -- 0 0.00 0 1394
09/30/2016 2251.64 969353 -3482 1527 -154 74 -- 0 0.00 0 1527
10/01/2016 -- -- -- -- -- -- -- -- -- -- --

Later | Latest

Warning! This data is preliminary and subject to revision.

Show CLE Map | Plot CLE Data | 1 Month CLE Data | Real-Time CLE Data | CLE Info